GW4906 Weather Reports


Display with metric or nautical units.
time (UTC)temp
F
wind
direction
speed
MPH
gust
MPH
rain 1hr
in
rain 24hr
in
rain mn
in
humidity
%
barometer
mb
20260506014012 61 300 8.0 14.0 0.00 0.00 0.00 52 1015.5
20260506013515 61 290 8.0 14.0 0.00 0.00 0.00 52 1015.5
20260506013032 62 300 7.0 15.0 0.00 0.00 0.00 51 1015.4
20260506012513 62 282 8.0 15.0 0.00 0.00 0.00 50 1015.4
20260506012013 62 271 7.0 14.0 0.00 0.00 0.00 53 1015.4
20260506011538 60 259 7.0 16.0 0.00 0.00 0.00 53 1015.4
20260506011015 61 296 10.0 14.0 0.00 0.00 0.00 53 1015.4
20260506010515 60 281 8.0 17.0 0.00 0.00 0.00 55 1015.5
20260506010045 61 274 10.0 18.0 0.00 0.00 0.00 53 1015.4
20260506005515 60 316 10.0 18.0 0.00 0.00 0.00 54 1015.4
20260506005011 60 280 11.0 19.0 0.00 0.00 0.00 55 1015.3
20260506004546 60 314 13.0 19.0 0.00 0.00 0.00 53 1015.3
20260506004015 61 294 12.0 18.0 0.00 0.00 0.00 52 1015.5
20260506003515 62 276 9.0 17.0 0.00 0.00 0.00 54 1015.5
20260506003040 62 292 12.0 17.0 0.00 0.00 0.00 52 1015.4
20260506002513 63 293 12.0 17.0 0.00 0.00 0.00 52 1015.4
20260506002019 63 278 10.0 20.0 0.00 0.00 0.00 52 1015.6
20260506001543 63 290 11.0 20.0 0.00 0.00 0.00 51 1015.5
20260506001014 64 288 13.0 18.0 0.00 0.00 0.00 49 1015.5
20260506000516 65 271 12.0 17.0 0.00 0.00 0.00 49 1015.3
20260506000038 66 291 11.0 17.0 0.00 0.00 0.00 49 1015.3
20260505235514 67 306 11.0 16.0 0.00 0.00 0.00 49 1015.3
20260505235013 67 293 5.0 12.0 0.00 0.00 0.00 51 1015.4
20260505234535 66 317 3.0 10.0 0.00 0.00 0.00 51 1015.4
20260505234016 64 282 1.0 8.0 0.00 0.00 0.00 55 1015.4
20260505233518 62 273 3.0 8.0 0.00 0.00 0.00 57 1015.2
20260505233032 61 236 3.0 9.0 0.00 0.00 0.00 61 1015.3
20260505232516 60 253 4.0 13.0 0.00 0.00 0.00 62 1015.4
20260505232013 60 271 8.0 13.0 0.00 0.00 0.00 59 1015.3
20260505231532 61 277 9.0 13.0 0.00 0.00 0.00 57 1015.3
20260505231014 61 269 8.0 12.0 0.00 0.00 0.00 57 1015.4
20260505230514 60 273 6.0 11.0 0.00 0.00 0.00 55 1015.4
20260505230046 61 267 6.0 10.0 0.00 0.00 0.00 57 1015.2
20260505225515 61 288 6.0 12.0 0.00 0.00 0.00 57 1015.3
20260505225020 61 270 7.0 15.0 0.00 0.00 0.00 54 1015.2
20260505224537 61 274 11.0 15.0 0.00 0.00 0.00 54 1015.2
20260505224015 62 288 10.0 16.0 0.00 0.00 0.00 55 1015.4
20260505223514 62 283 11.0 18.0 0.00 0.00 0.00 54 1015.4
20260505223035 62 303 12.0 19.0 0.00 0.00 0.00 55 1015.4
20260505222519 62 279 11.0 21.0 0.00 0.00 0.00 56 1015.3
20260505222015 62 263 12.0 18.0 0.00 0.00 0.00 56 1015.2
20260505221533 62 290 10.0 18.0 0.00 0.00 0.00 57 1015.0
20260505221016 62 287 13.0 17.0 0.00 0.00 0.00 55 1015.2
20260505220514 62 299 12.0 17.0 0.00 0.00 0.00 55 1015.1
20260505220041 61 302 9.0 17.0 0.00 0.00 0.00 58 1014.9
20260505215516 62 273 11.0 16.0 0.00 0.00 0.00 56 1014.9
20260505215017 62 269 10.0 16.0 0.00 0.00 0.00 56 1015.0
20260505214536 62 292 9.0 17.0 0.00 0.00 0.00 58 1015.1
20260505214016 61 282 10.0 17.0 0.00 0.00 0.00 57 1015.1
20260505213520 61 286 12.0 17.0 0.00 0.00 0.00 56 1015.0
20260505213043 61 275 12.0 17.0 0.00 0.00 0.00 56 1015.1
20260505212516 62 267 11.0 16.0 0.00 0.00 0.00 55 1015.0
20260505212016 61 291 9.0 16.0 0.00 0.00 0.00 57 1015.0
20260505211541 62 276 10.0 14.0 0.00 0.00 0.00 55 1015.0
20260505211017 63 273 9.0 14.0 0.00 0.00 0.00 55 1015.1
20260505210518 63 283 8.0 13.0 0.00 0.00 0.00 55 1015.1
20260505210033 64 274 9.0 15.0 0.00 0.00 0.00 54 1014.9
20260505205522 64 274 10.0 15.0 0.00 0.00 0.00 54 1014.9
20260505205017 63 273 9.0 15.0 0.00 0.00 0.00 55 1014.7
20260505204535 62 296 9.0 15.0 0.00 0.00 0.00 57 1014.7
20260505204017 63 276 7.0 15.0 0.00 0.00 0.00 57 1014.7
20260505203517 63 286 9.0 14.0 0.00 0.00 0.00 54 1014.7
20260505203044 63 269 7.0 14.0 0.00 0.00 0.00 57 1014.8
20260505202516 63 263 6.0 13.0 0.00 0.00 0.00 56 1014.7
20260505202017 63 267 6.0 13.0 0.00 0.00 0.00 55 1014.7
20260505201536 64 254 5.0 11.0 0.00 0.00 0.00 55 1014.7
20260505201016 63 234 5.0 9.0 0.00 0.00 0.00 55 1014.6
20260505200518 64 232 3.0 7.0 0.00 0.00 0.00 55 1014.6
20260505200051 63 274 3.0 9.0 0.00 0.00 0.00 55 1014.6
20260505195523 64 243 3.0 8.0 0.00 0.00 0.00 54 1014.6
20260505195020 64 293 3.0 9.0 0.00 0.00 0.00 53 1014.6
20260505194548 64 269 6.0 10.0 0.00 0.00 0.00 53 1014.6
20260505194019 64 286 5.0 10.0 0.00 0.00 0.00 54 1014.6
20260505193522 63 267 3.0 8.0 0.00 0.00 0.00 56 1014.5
20260505193110 63 286 4.0 8.0 0.00 0.00 0.00 58 1014.5
20260505192518 63 260 4.0 10.0 0.00 0.00 0.00 57 1014.5
20260505192021 62 292 4.0 10.0 0.00 0.00 0.00 59 1014.5
20260505191542 62 280 4.0 10.0 0.00 0.00 0.00 58 1014.4
20260505191021 63 263 5.0 10.0 0.00 0.00 0.00 58 1014.4
20260505190519 63 277 6.0 11.0 0.00 0.00 0.00 55 1014.5
20260505190048 63 269 6.0 11.0 0.00 0.00 0.00 58 1014.4
20260505185519 63 304 6.0 11.0 0.00 0.00 0.00 57 1014.3
20260505185023 63 284 7.0 11.0 0.00 0.00 0.00 57 1014.2
20260505184542 62 298 7.0 11.0 0.00 0.00 0.00 58 1014.1
20260505184021 62 283 7.0 11.0 0.00 0.00 0.00 58 1014.1
20260505183521 61 285 6.0 9.0 0.00 0.00 0.00 60 1014.1
20260505183054 61 284 7.0 9.0 0.00 0.00 0.00 61 1014.0
20260505182518 61 297 6.0 10.0 0.00 0.00 0.00 59 1014.2
20260505182018 62 296 7.0 9.0 0.00 0.00 0.00 58 1014.0
20260505181541 63 281 6.0 9.0 0.00 0.00 0.00 57 1013.9
20260505181019 63 309 5.0 9.0 0.00 0.00 0.00 60 1013.9
20260505180521 62 285 2.0 4.0 0.00 0.00 0.00 62 1013.7
20260505180051 61 291 2.0 7.0 0.00 0.00 0.00 62 1013.6
20260505175517 61 286 3.0 7.0 0.00 0.00 0.00 63 1013.7
20260505175016 60 273 2.0 6.0 0.00 0.00 0.00 65 1013.7
20260505174543 60 242 2.0 4.0 0.00 0.00 0.00 63 1013.8
20260505174020 59 273 1.0 3.0 0.00 0.00 0.00 65 1013.7
20260505173525 58 273 1.0 6.0 0.00 0.00 0.00 66 1013.6
20260505173046 57 273 2.0 7.0 0.00 0.00 0.00 67 1013.7
20260505172517 57 271 4.0 8.0 0.00 0.00 0.00 68 1013.6
20260505172019 57 280 5.0 8.0 0.00 0.00 0.00 69 1013.5
20260505171547 57 281 4.0 8.0 0.00 0.00 0.00 70 1013.4
20260505171021 58 280 5.0 8.0 0.00 0.00 0.00 68 1013.6
20260505170520 58 294 6.0 8.0 0.00 0.00 0.00 67 1013.4
20260505170046 58 284 3.0 7.0 0.00 0.00 0.00 68 1013.3
20260505165519 58 280 3.0 7.0 0.00 0.00 0.00 66 1013.2
20260505165019 58 269 3.0 6.0 0.00 0.00 0.00 65 1013.2
20260505164543 58 269 1.0 4.0 0.00 0.00 0.00 67 1013.3
20260505164017 58 269 2.0 6.0 0.00 0.00 0.00 64 1013.1
20260505163519 59 269 3.0 6.0 0.00 0.00 0.00 66 1013.2
20260505163045 58 269 3.0 4.0 0.00 0.00 0.00 66 1013.1
20260505162523 58 269 0.0 3.0 0.00 0.00 0.00 69 1013.0
20260505162022 58 269 1.0 4.0 0.00 0.00 0.00 67 1012.9
20260505161559 58 269 2.0 6.0 0.00 0.00 0.00 66 1012.9
20260505161018 58 269 3.0 6.0 0.00 0.00 0.00 67 1012.7
20260505160523 58 269 3.0 4.0 0.00 0.00 0.00 66 1012.9
20260505153056 58 184 0.0 0.0 0.00 0.00 0.00 68 1012.4
20260505152520 57 184 0.0 0.0 0.00 0.00 0.00 70 1012.3
20260505152029 56 266 0.0 2.0 0.00 0.00 0.00 71 1012.3
20260505151554 56 266 0.0 2.0 0.00 0.00 0.00 72 1012.4
20260505151021 55 266 0.0 2.0 0.00 0.00 0.00 70 1012.4
20260505150518 54 266 0.0 2.0 0.00 0.00 0.00 71 1012.4
20260505140519 52 167 7.0 10.0 0.00 0.00 0.00 75 1011.9
20260505125024 57 114 5.0 8.0 0.00 0.00 0.00 59 1011.2
20260505124557 56 128 1.0 7.0 0.00 0.00 0.00 61 1011.2
20260505124016 56 120 4.0 8.0 0.00 0.00 0.00 64 1011.1
20260505123520 57 117 6.0 7.0 0.00 0.00 0.00 63 1011.0
20260505123109 57 114 1.0 4.0 0.00 0.00 0.00 62 1011.0
20260505122519 57 78 1.0 5.0 0.00 0.00 0.00 63 1011.1
20260505122233 57 78 1.0 7.0 0.00 0.00 0.00 61 1011.1
20260505121532 57 82 5.0 8.0 0.00 0.00 0.00 62 1011.1
20260505121013 57 115 6.0 8.0 0.00 0.00 0.00 63 1011.1
20260505120512 56 113 6.0 9.0 0.00 0.00 0.00 64 1011.1
20260505120039 56 113 7.0 9.0 0.00 0.00 0.00 65 1011.1
20260505115510 56 114 8.0 9.0 0.00 0.00 0.00 66 1011.0
20260505115009 56 123 6.0 9.0 0.00 0.00 0.00 64 1011.1
20260505114527 56 175 5.0 6.0 0.00 0.00 0.00 67 1011.2
20260505114012 57 163 4.0 7.0 0.00 0.00 0.00 63 1011.2
20260505113511 57 146 4.0 7.0 0.00 0.00 0.00 62 1011.2
20260505113029 57 154 4.0 7.0 0.00 0.00 0.00 62 1011.1
20260505112511 58 157 4.0 7.0 0.00 0.00 0.00 62 1011.1
20260505112011 58 144 5.0 7.0 0.00 0.00 0.00 63 1011.1
20260505111532 58 111 3.0 6.0 0.00 0.00 0.00 62 1011.1
20260505111011 58 111 3.0 4.0 0.00 0.00 0.00 64 1011.0
20260505110511 58 111 3.0 4.0 0.00 0.00 0.00 63 1011.1
20260505102013 58 111 2.0 3.0 0.00 0.00 0.00 61 1011.0
20260505101534 58 111 0.0 2.0 0.00 0.00 0.00 61 1011.0
20260505101014 58 111 0.0 4.0 0.00 0.00 0.00 59 1011.1
20260505100513 58 110 2.0 4.0 0.00 0.00 0.00 59 1011.1
20260505100031 58 350 1.0 2.0 0.00 0.00 0.00 59 1011.0
20260505095510 58 350 0.0 3.0 0.00 0.00 0.00 60 1011.1
20260505095012 58 350 0.0 4.0 0.00 0.00 0.00 60 1011.1
20260505094531 58 350 2.0 4.0 0.00 0.00 0.00 60 1011.3
20260505094012 58 350 0.0 5.0 0.00 0.00 0.00 59 1011.2
20260505093512 59 350 3.0 5.0 0.00 0.00 0.00 59 1011.2
20260505093031 60 304 1.0 5.0 0.00 0.00 0.00 57 1011.2
20260505092513 60 155 2.0 7.0 0.00 0.00 0.00 55 1011.1
20260505092014 60 174 4.0 9.0 0.00 0.00 0.00 55 1011.0
20260505091533 60 147 4.0 10.0 0.00 0.00 0.00 55 1011.1
20260505091011 60 119 6.0 10.0 0.00 0.00 0.00 54 1010.6
20260505090513 61 150 4.0 7.0 0.00 0.00 0.00 54 1011.0
20260505090030 61 140 2.0 4.0 0.00 0.00 0.00 54 1011.0
20260505085511 61 140 0.0 1.0 0.00 0.00 0.00 54 1011.0
20260505085013 61 140 0.0 2.0 0.00 0.00 0.00 53 1010.9
20260505084544 61 140 0.0 2.0 0.00 0.00 0.00 54 1010.9
20260505084012 62 140 0.0 4.0 0.00 0.00 0.00 53 1011.0
20260505083511 63 140 2.0 4.0 0.00 0.00 0.00 51 1010.9
20260505083046 63 140 2.0 4.0 0.00 0.00 0.00 48 1010.8
20260505082513 64 315 0.0 2.0 0.00 0.00 0.00 48 1010.8
20260505082013 64 315 0.0 4.0 0.00 0.00 0.00 45 1010.7
20260505081541 64 315 2.0 4.0 0.00 0.00 0.00 45 1010.7
20260505081014 64 66 2.0 3.0 0.00 0.00 0.00 46 1010.7
20260505080512 64 66 0.0 2.0 0.00 0.00 0.00 46 1010.7
20260505080044 64 66 0.0 3.0 0.00 0.00 0.00 46 1010.7
20260505075514 63 66 0.0 5.0 0.00 0.00 0.00 47 1010.7
20260505075011 63 66 3.0 5.0 0.00 0.00 0.00 49 1010.7
20260505074535 63 52 2.0 5.0 0.00 0.00 0.00 50 1010.7
20260505074014 63 31 2.0 4.0 0.00 0.00 0.00 49 1010.8
20260505073512 63 26 2.0 4.0 0.00 0.00 0.00 49 1010.8
20260505073045 62 101 1.0 6.0 0.00 0.00 0.00 50 1010.8
20260505072513 62 90 3.0 8.0 0.00 0.00 0.00 52 1010.8
20260505072011 62 71 5.0 8.0 0.00 0.00 0.00 55 1011.0
20260505071544 63 64 5.0 8.0 0.00 0.00 0.00 53 1011.0
20260505071013 64 65 4.0 8.0 0.00 0.00 0.00 50 1011.1
20260505070515 64 58 2.0 5.0 0.00 0.00 0.00 50 1011.1
20260505070042 65 30 3.0 8.0 0.00 0.00 0.00 49 1011.1
20260505065513 65 28 5.0 8.0 0.00 0.00 0.00 47 1011.0
20260505065014 66 30 4.0 6.0 0.00 0.00 0.00 48 1011.0
20260505064535 66 19 4.0 7.0 0.00 0.00 0.00 48 1011.0
20260505064011 66 24 3.0 5.0 0.00 0.00 0.00 47 1010.9
20260505063513 66 49 3.0 6.0 0.00 0.00 0.00 46 1011.0
20260505063039 66 11 4.0 6.0 0.00 0.00 0.00 47 1010.9
20260505062513 66 86 0.0 4.0 0.00 0.00 0.00 45 1011.0
20260505062013 66 86 1.0 6.0 0.00 0.00 0.00 46 1011.0
20260505061532 65 86 3.0 7.0 0.00 0.00 0.00 47 1011.0
20260505061014 64 86 4.0 7.0 0.00 0.00 0.00 49 1011.0
20260505060514 64 67 4.0 5.0 0.00 0.00 0.00 52 1010.9
20260505060052 64 59 2.0 6.0 0.00 0.00 0.00 51 1011.0
20260505055512 64 29 4.0 9.0 0.00 0.00 0.00 51 1011.1
20260505055014 64 16 5.0 9.0 0.00 0.00 0.00 52 1011.1
20260505054537 63 15 7.0 9.0 0.00 0.00 0.00 54 1011.1
20260505054017 62 17 6.0 9.0 0.00 0.00 0.00 56 1010.9
20260505053513 62 21 5.0 9.0 0.00 0.00 0.00 57 1010.9
20260505053038 62 58 6.0 9.0 0.00 0.00 0.00 57 1011.0
20260505052512 63 343 2.0 7.0 0.00 0.00 0.00 56 1011.0
20260505052012 64 20 4.0 7.0 0.00 0.00 0.00 54 1011.0
20260505051532 65 55 4.0 6.0 0.00 0.00 0.00 52 1011.0
20260505051013 67 57 3.0 6.0 0.00 0.00 0.00 49 1010.8
20260505050514 67 49 1.0 4.0 0.00 0.00 0.00 47 1010.9
20260505041545 66 38 4.0 8.0 0.00 0.00 0.00 49 1011.1
20260505041012 65 23 5.0 9.0 0.00 0.00 0.00 49 1011.2
20260505040517 65 34 5.0 9.0 0.00 0.00 0.00 50 1011.2
20260505040034 66 42 6.0 9.0 0.00 0.00 0.00 50 1011.1
20260505035513 67 32 5.0 11.0 0.00 0.00 0.00 48 1011.2
20260505035011 67 18 6.0 11.0 0.00 0.00 0.00 46 1011.1
20260505034532 67 11 7.0 11.0 0.00 0.00 0.00 47 1011.1
20260505034017 68 350 5.0 9.0 0.00 0.00 0.00 47 1011.4
20260505033513 69 5 5.0 8.0 0.00 0.00 0.00 45 1011.3
20260505033034 69 352 4.0 8.0 0.00 0.00 0.00 45 1011.3
20260505032514 69 352 4.0 8.0 0.00 0.00 0.00 45 1011.2
20260505032016 69 350 4.0 9.0 0.00 0.00 0.00 45 1011.2
20260505031533 70 352 5.0 9.0 0.00 0.00 0.00 46 1011.3
20260505031014 70 5 4.0 9.0 0.00 0.00 0.00 45 1011.2
20260505030512 70 5 4.0 10.0 0.00 0.00 0.00 45 1011.3
20260505030044 71 26 4.0 9.0 0.00 0.00 0.00 45 1011.2
20260505025517 71 13 5.0 9.0 0.00 0.00 0.00 45 1011.4
20260505025012 72 16 4.0 9.0 0.00 0.00 0.00 43 1011.4
20260505024534 73 352 3.0 9.0 0.00 0.00 0.00 44 1011.6
20260505024015 72 5 4.0 9.0 0.00 0.00 0.00 43 1011.6
20260505023515 72 5 3.0 10.0 0.00 0.00 0.00 42 1011.6
20260505023037 72 345 4.0 10.0 0.00 0.00 0.00 42 1011.6
20260505022514 73 28 4.0 9.0 0.00 0.00 0.00 43 1011.7
20260505022012 73 352 4.0 9.0 0.00 0.00 0.00 42 1011.7
20260505021537 73 345 4.0 10.0 0.00 0.00 0.00 44 1011.8
20260505021015 73 314 5.0 12.0 0.00 0.00 0.00 44 1011.8
20260505020513 73 306 7.0 12.0 0.00 0.00 0.00 42 1011.9
20260505020043 73 319 6.0 10.0 0.00 0.00 0.00 41 1012.0
20260505015514 75 5 4.0 9.0 0.00 0.00 0.00 40 1012.0
20260505015014 77 32 1.0 6.0 0.00 0.00 0.00 39 1011.9
20260505014551 77 46 1.0 5.0 0.00 0.00 0.00 38 1012.1